Location: Balmoral
(33.0667°S, 151.5833°E)
Time: 04:02:20
(UTC+00:00)

Cosmos 1605 Rocket - Pass Details

Date: 18 September 2020
Orbit: 946 x 1005 km, 82.9° (Epoch: 23 October)

Event Time Altitude Azimuth Distance (km) Brightness Sun altitude
Rises 19:04:20 0° 339° (NNW) 3,705 6.8 -9.8°
Reaches altitude 10° 19:06:58 10° 333° (NNW) 2,757 6.1 -9.3°
Maximum altitude 19:13:00 46° 260° (W) 1,312 4.3 -8.0°
Drops below altitude 10° 19:19:02 10° 188° (S) 2,751 6.3 -6.8°
Sets 19:21:41 0° 181° (S) 3,696 7.1 -6.2°
